GW6780 Weather Reports


time (UTC)temp
C
wind
direction
speed
KPH
gust
KPH
rain 1hr
cm
rain 24hr
cm
rain mn
cm
humidity
%
barometer
mb
20260507085931 11 62 6.4 16.1 0.20 0.97 0.97 89 1007.7
20260507085430 11 74 6.4 16.1 0.23 0.97 0.97 89 1007.6
20260507084930 11 84 4.8 12.9 0.20 0.94 0.94 89 1007.7
20260507084430 11 83 4.8 12.9 0.23 0.94 0.91 89 1007.6
20260507083931 10 78 4.8 9.7 0.18 0.89 0.89 89 1007.6
20260507083430 11 76 3.2 9.7 0.15 0.86 0.86 89 1007.5
20260507082429 10 75 4.8 11.3 0.05 0.79 0.79 89 1007.4
20260507081930 11 63 4.8 9.7 0.05 0.79 0.79 89 1007.4
20260507080932 11 55 3.2 9.7 0.05 0.79 0.76 89 1007.3
20260507080430 11 68 3.2 9.7 0.05 0.76 0.76 89 1007.2
20260507075430 11 86 4.8 12.9 0.03 0.76 0.74 89 1007.2
20260507074431 11 67 3.2 8.0 0.00 0.74 0.71 89 1007.1
20260507073932 11 65 4.8 12.9 0.00 0.74 0.71 89 1007.1
20260507073430 11 85 6.4 12.9 0.00 0.74 0.71 89 1007.0
20260507072933 11 42 4.8 12.9 0.00 0.74 0.71 89 1006.9
20260507072430 11 50 4.8 9.7 0.00 0.74 0.71 90 1006.9
20260507071430 11 35 4.8 12.9 0.00 0.74 0.71 90 1006.8
20260507070431 11 58 6.4 12.9 0.00 0.74 0.71 90 1006.8
20260507064932 11 20 3.2 9.7 0.00 0.74 0.71 90 1006.8
20260507063932 11 348 4.8 9.7 0.00 0.74 0.71 90 1006.6
20260507063432 11 9 3.2 9.7 0.00 0.74 0.71 90 1006.6
20260507061933 11 300 3.2 6.4 0.03 0.74 0.71 91 1006.5
20260507060946 11 250 1.6 4.8 0.03 0.74 0.71 91 1006.5
20260507060431 11 322 3.2 6.4 0.03 0.74 0.71 91 1006.4
20260507055430 11 313 1.6 4.8 0.05 0.74 0.71 91 1006.4
20260507054933 11 304 3.2 4.8 0.05 0.74 0.71 91 1006.2
20260507054430 11 300 3.2 4.8 0.05 0.74 0.71 91 1006.1
20260507053932 10 296 1.6 4.8 0.08 0.74 0.71 91 1006.1
20260507053430 10 295 0.0 1.6 0.08 0.74 0.71 91 1006.1
20260507051932 10 296 0.0 3.2 0.08 0.71 0.71 91 1006.1
20260507051430 10 296 0.0 3.2 0.08 0.71 0.71 90 1006.0
20260507050931 10 296 1.6 3.2 0.08 0.71 0.71 90 1006.0
20260507050431 10 296 0.0 1.6 0.08 0.71 0.71 90 1006.0
20260507045931 10 296 0.0 1.6 0.08 0.71 0.69 90 1006.0
20260507045430 10 296 0.0 1.6 0.08 0.71 0.69 90 1006.0
20260507044931 10 296 0.0 1.6 0.08 0.71 0.69 90 1005.8
20260507043908 10 296 0.0 3.2 0.08 0.66 0.64 90 1005.7
20260507043406 10 296 1.6 3.2 0.10 0.66 0.64 90 1005.6
20260507042905 10 296 1.6 3.2 0.10 0.64 0.61 90 1005.6
20260507042402 10 296 1.6 3.2 0.13 0.64 0.61 90 1005.7
20260507041905 10 296 0.0 3.2 0.15 0.64 0.61 90 1005.7
20260507041402 10 294 0.0 1.6 0.15 0.64 0.61 90 1005.6
20260507035905 10 294 0.0 1.6 0.15 0.61 0.61 90 1005.4
20260507035402 10 294 0.0 1.6 0.15 0.61 0.61 90 1005.6
20260507034904 10 294 0.0 3.2 0.15 0.61 0.58 90 1005.4
20260507033904 10 294 0.0 3.2 0.15 0.58 0.56 90 1005.4
20260507033402 10 295 0.0 0.0 0.15 0.56 0.53 90 1005.4
20260507032905 10 295 0.0 1.6 0.15 0.53 0.51 90 1005.4
20260507031905 10 294 1.6 4.8 0.15 0.51 0.48 90 1005.4
20260507031402 10 294 1.6 4.8 0.15 0.51 0.48 90 1005.4
20260507030904 10 294 1.6 4.8 0.18 0.51 0.46 90 1005.4
20260507030402 10 294 1.6 4.8 0.20 0.48 0.46 90 1005.3
20260507025903 10 296 1.6 4.8 0.20 0.46 0.43 90 1005.2
20260507025402 10 296 1.6 4.8 0.20 0.46 0.43 89 1005.2
20260507024402 10 40 0.0 1.6 0.18 0.43 0.43 89 1005.1
20260507023904 10 41 1.6 6.4 0.18 0.43 0.41 89 1005.1
20260507023402 10 42 3.2 6.4 0.15 0.41 0.38 89 1005.0
20260507022918 10 74 3.2 6.4 0.13 0.38 0.36 89 1005.0
20260507022402 10 53 1.6 6.4 0.10 0.36 0.33 89 1005.0
20260507021904 10 317 1.6 4.8 0.08 0.33 0.33 89 1005.0
20260507021402 10 315 1.6 4.8 0.10 0.33 0.30 89 1005.1
20260507020905 10 315 1.6 4.8 0.10 0.33 0.28 89 1005.0
20260507015402 10 315 0.0 3.2 0.15 0.25 0.23 89 1005.2
20260507013401 10 314 0.0 3.2 0.23 0.25 0.23 88 1005.1
20260507012904 10 315 0.0 3.2 0.23 0.25 0.23 88 1005.0
20260507012402 10 315 0.0 3.2 0.23 0.25 0.23 88 1005.0
20260507011904 10 314 0.0 3.2 0.23 0.25 0.23 88 1004.9
20260507011401 10 315 1.6 6.4 0.23 0.23 0.23 88 1004.9
20260507010904 10 315 3.2 6.4 0.20 0.23 0.20 88 1004.9
20260507010401 10 313 3.2 6.4 0.18 0.20 0.18 88 1004.9
20260507005904 10 294 3.2 9.7 0.15 0.18 0.15 88 1004.9
20260507005403 10 290 3.2 9.7 0.10 0.13 0.10 88 1005.0
20260507004904 10 254 3.2 6.4 0.08 0.10 0.05 88 1005.0
20260507003904 10 175 0.0 3.2 0.05 0.05 0.05 87 1004.7
20260507002905 10 175 1.6 4.8 0.03 0.05 0.03 87 1004.7
20260507002402 10 173 1.6 6.4 0.03 0.05 0.03 87 1004.7
20260507001904 11 171 1.6 9.7 0.00 0.03 0.00 87 1004.7
20260507001402 11 159 1.6 9.7 0.00 0.03 0.00 87 1004.6
20260507000405 11 140 3.2 8.0 0.00 0.03 0.00 87 1004.5
20260506235903 11 144 3.2 6.4 0.00 0.03 0.00 87 1004.5
20260506235401 11 142 3.2 8.0 0.00 0.03 0.00 87 1004.5
20260506234903 11 146 3.2 8.0 0.00 0.03 0.00 86 1004.5
20260506234402 11 128 1.6 6.4 0.00 0.03 0.00 86 1004.5
20260506233402 11 101 3.2 9.7 0.00 0.03 0.00 86 1004.3
20260506231903 11 99 4.8 11.3 0.00 0.03 0.00 86 1004.3
20260506230903 11 100 3.2 9.7 0.00 0.03 0.00 86 1004.3
20260506230403 11 124 1.6 9.7 0.00 0.03 0.00 86 1004.3
20260506225903 11 125 3.2 9.7 0.00 0.03 0.00 86 1004.3
20260506224904 11 106 4.8 9.7 0.00 0.03 0.00 86 1004.2
20260506223904 11 102 3.2 8.0 0.00 0.03 0.00 86 1004.1
20260506223402 11 59 3.2 8.0 0.00 0.03 0.00 86 1004.2
20260506222402 11 57 3.2 12.9 0.00 0.03 0.00 87 1004.2
20260506221402 11 70 4.8 14.5 0.00 0.05 0.00 87 1004.3
20260506220903 11 19 4.8 17.7 0.00 0.05 0.00 86 1004.4
20260506215903 11 49 8.0 19.3 0.00 0.13 0.13 86 1004.3
20260506215401 11 32 8.0 19.3 0.00 0.15 0.13 86 1004.2
20260506214902 11 329 8.0 20.9 0.00 0.20 0.13 86 1004.4
20260506214401 11 24 8.0 22.5 0.00 0.23 0.13 86 1004.3
20260506213902 11 19 6.4 22.5 0.00 0.28 0.13 86 1004.3
20260506213402 11 39 4.8 16.1 0.00 0.33 0.13 86 1004.3
20260506212903 12 9 4.8 12.9 0.00 0.38 0.13 86 1004.3
20260506211402 12 235 8.0 17.7 0.00 0.51 0.13 86 1004.1
20260506210903 12 296 9.7 20.9 0.00 0.56 0.13 86 1004.0
20260506210403 12 268 6.4 20.9 0.00 0.61 0.13 86 1004.0
20260506205402 13 80 3.2 11.3 0.00 0.71 0.13 86 1003.7
20260506204902 13 78 4.8 11.3 0.00 0.74 0.13 86 1003.7
20260506204401 13 82 6.4 12.9 0.00 0.76 0.13 86 1003.6
20260506203402 13 97 3.2 11.3 0.00 0.91 0.13 86 1003.8
20260506202902 13 267 3.2 8.0 0.00 1.55 0.13 86 1003.8
20260506202402 13 46 3.2 8.0 0.00 2.46 0.13 85 1003.7
20260506201901 13 44 1.6 8.0 0.00 2.69 0.13 85 1003.9
20260506195902 13 192 0.0 4.8 0.00 2.69 0.13 85 1003.4
20260506195402 13 111 0.0 1.6 0.00 2.69 0.13 84 1003.3
20260506194902 13 111 0.0 1.6 0.00 2.69 0.13 84 1003.3
20260506194402 13 111 1.6 6.4 0.00 2.69 0.13 84 1003.3
20260506193903 13 111 3.2 8.0 0.00 2.72 0.13 84 1003.3
20260506193404 13 121 3.2 12.9 0.00 2.82 0.13 84 1003.3
20260506192403 13 74 3.2 12.9 0.00 3.12 0.13 83 1003.3
20260506191902 13 43 1.6 12.9 0.00 3.12 0.13 83 1003.4
20260506190403 14 28 6.4 12.9 0.00 3.12 0.13 82 1002.8
20260506185902 14 84 4.8 12.9 0.00 3.12 0.13 82 1002.6
20260506185403 14 19 4.8 14.5 0.00 3.12 0.13 81 1002.6
20260506184902 14 74 4.8 14.5 0.00 3.12 0.13 81 1002.5
20260506183902 14 45 4.8 12.9 0.00 3.12 0.13 79 1002.4
20260506183403 13 63 3.2 12.9 0.00 3.12 0.13 79 1002.4
20260506182902 13 225 0.0 4.8 0.00 3.12 0.13 78 1002.3
20260506181417 13 225 0.0 0.0 0.00 3.12 0.13 77 1002.4
20260506180403 13 225 0.0 3.2 0.00 3.12 0.13 78 1002.4
20260506174845 14 224 0.0 1.6 0.00 3.15 0.13 76 1002.3
20260506174342 15 224 0.0 4.8 0.00 3.15 0.13 74 1002.3
20260506173832 15 224 0.0 4.8 0.00 3.15 0.13 71 1002.2
20260506173332 16 224 1.6 4.8 0.00 3.15 0.13 67 1002.2
20260506172832 17 223 3.2 6.4 0.00 3.15 0.13 64 1002.3
20260506171331 17 250 3.2 11.3 0.00 3.15 0.13 62 1002.1
20260506170831 17 239 4.8 11.3 0.00 3.15 0.13 63 1002.2
20260506165831 17 205 4.8 11.3 0.00 3.15 0.13 61 1002.0
20260506165332 17 210 3.2 8.0 0.00 3.15 0.13 62 1002.1
20260506164831 17 242 3.2 8.0 0.00 3.15 0.13 62 1002.1
20260506164331 17 250 4.8 9.7 0.00 3.15 0.13 62 1002.0
20260506163831 17 198 6.4 11.3 0.00 3.15 0.13 61 1002.1
20260506163331 17 201 6.4 11.3 0.00 3.15 0.13 61 1002.1
20260506162332 17 173 6.4 14.5 0.00 3.15 0.13 61 1002.1
20260506161831 17 208 4.8 9.7 0.00 3.15 0.13 60 1002.1
20260506161323 17 200 3.2 8.0 0.00 3.15 0.13 60 1002.2
20260506160819 17 239 3.2 8.0 0.00 3.15 0.13 60 1002.3
20260506160302 18 306 3.2 9.7 0.00 3.15 0.13 59 1002.3
20260506155803 18 216 4.8 11.3 0.00 3.15 0.13 60 1002.4
20260506155306 18 183 4.8 11.3 0.00 3.15 0.13 60 1002.4
20260506154803 18 230 4.8 11.3 0.00 3.15 0.13 59 1002.4
20260506154304 18 185 6.4 11.3 0.00 3.15 0.13 58 1002.5
20260506153803 18 262 4.8 11.3 0.00 3.15 0.13 59 1002.7
20260506153303 18 266 4.8 11.3 0.00 3.15 0.13 58 1002.7
20260506151802 18 196 6.4 14.5 0.00 3.15 0.13 60 1002.8
20260506150802 17 245 6.4 14.5 0.00 3.15 0.13 60 1002.9
20260506150305 17 260 8.0 14.5 0.00 3.15 0.13 60 1002.8
20260506145803 17 250 6.4 12.9 0.00 3.15 0.13 60 1002.8
20260506144802 18 237 9.7 19.3 0.00 3.15 0.13 59 1002.9
20260506144303 18 243 8.0 19.3 0.00 3.15 0.13 58 1002.9
20260506143802 18 247 8.0 17.7 0.00 3.15 0.13 58 1002.7
20260506143303 18 217 8.0 19.3 0.00 3.17 0.13 59 1003.0
20260506142305 18 216 8.0 19.3 0.00 3.17 0.13 58 1002.9
20260506141801 18 225 9.7 19.3 0.00 3.17 0.13 58 1002.8
20260506140802 18 194 8.0 16.1 0.00 3.17 0.13 58 1002.9
20260506140303 18 271 8.0 17.7 0.00 3.17 0.13 59 1002.9
20260506135802 18 230 9.7 20.9 0.00 3.17 0.13 57 1003.0
20260506135305 18 214 9.7 20.9 0.00 3.17 0.13 58 1002.9
20260506134802 19 213 8.0 17.7 0.00 3.17 0.13 59 1002.9
20260506134304 19 198 8.0 16.1 0.00 3.17 0.13 61 1003.0
20260506133803 18 213 9.7 17.7 0.00 3.17 0.13 59 1003.0
20260506133303 18 211 9.7 17.7 0.00 3.17 0.13 61 1003.0
20260506132802 18 238 8.0 16.1 0.00 3.17 0.13 61 1003.0
20260506132306 18 192 8.0 16.1 0.00 3.17 0.13 62 1003.0
20260506131802 18 230 9.7 24.1 0.00 3.17 0.13 62 1003.0
20260506131304 18 244 11.3 24.1 0.00 3.17 0.13 61 1003.0
20260506130304 18 209 11.3 24.1 0.00 3.17 0.13 61 1003.2
20260506125802 18 210 9.7 24.1 0.00 3.17 0.13 62 1003.2
20260506125305 18 204 11.3 17.7 0.00 3.17 0.13 64 1003.0
20260506124802 18 187 11.3 19.3 0.00 3.17 0.13 63 1003.3
20260506124302 18 227 8.0 19.3 0.00 3.17 0.13 63 1003.4
20260506123802 19 234 6.4 17.7 0.00 3.17 0.13 63 1003.4
20260506123303 18 217 9.7 22.5 0.00 3.17 0.13 63 1003.4
20260506122802 18 223 11.3 22.5 0.00 3.17 0.13 65 1003.6
20260506122305 18 211 11.3 27.4 0.00 3.17 0.13 64 1003.6
20260506121802 18 240 9.7 27.4 0.00 3.17 0.13 63 1003.6
20260506121303 18 215 9.7 17.7 0.00 3.17 0.13 65 1003.6
20260506120803 17 201 11.3 24.1 0.00 3.17 0.13 66 1003.6
20260506115802 17 212 4.8 14.5 0.00 3.17 0.13 66 1003.6
20260506115306 17 181 6.4 19.3 0.00 3.17 0.13 68 1003.6
20260506114802 17 211 8.0 24.1 0.00 3.17 0.13 67 1003.6
20260506114303 17 242 8.0 24.1 0.00 3.17 0.13 67 1003.5
20260506113813 17 296 8.0 17.7 0.00 3.17 0.13 68 1003.5
20260506113304 17 194 8.0 17.7 0.00 3.17 0.13 66 1003.6
20260506112306 17 266 9.7 17.7 0.00 3.17 0.13 68 1003.5
20260506111802 17 210 9.7 16.1 0.00 3.17 0.13 65 1003.5
20260506111304 18 263 8.0 19.3 0.00 3.17 0.13 65 1003.6
20260506110802 17 271 8.0 22.5 0.00 3.17 0.13 67 1003.6
20260506105802 17 264 11.3 25.7 0.00 3.17 0.13 66 1003.7
20260506105305 17 222 11.3 25.7 0.00 3.17 0.13 67 1003.7
20260506103304 18 208 11.3 27.4 0.00 3.17 0.13 64 1003.7
20260506102305 17 209 12.9 29.0 0.00 3.17 0.13 66 1003.7
20260506101801 17 265 14.5 29.0 0.00 3.17 0.13 66 1003.8
20260506101303 16 245 14.5 27.4 0.00 3.17 0.13 68 1003.7
20260506100304 16 230 12.9 24.1 0.00 3.17 0.13 70 1003.7
20260506095802 16 230 12.9 24.1 0.00 3.17 0.13 70 1003.7
20260506094802 16 270 11.3 24.1 0.00 3.17 0.13 70 1003.7
20260506093802 16 209 14.5 27.4 0.00 3.17 0.13 71 1003.6
20260506092803 16 233 14.5 30.6 0.00 3.17 0.13 69 1003.6
20260506091802 17 196 12.9 27.4 0.00 3.17 0.13 73 1003.4
20260506091303 16 262 12.9 27.4 0.00 3.17 0.13 73 1003.4
20260506090802 16 254 9.7 24.1 0.00 3.17 0.13 72 1003.4